Location: Brookfield Manor Mobile Home Park
(33.6853°N, 117.9567°W)
Time: 17:50:38
(UTC+00:00)

Daily predictions for brighter satellites

Satellite Brightness Start Highest point End
(mag) Time Altitude Azimuth Time Altitude Azimuth Time Altitude Azimuth
BREEZE-M DEB (TANK) 3.7 12:02:17 10° W 12:04:14 18° SSW 12:07:31 10° S
Cosmos 1328 Rocket 4.2 12:00:45 10° NNW 12:04:42 34° W 12:08:37 10° SSW
Cosmos 1340 3.1 12:01:52 10° SSW 12:05:27 43° W 12:09:03 10° N
Cosmos 158 Rocket 3.9 12:00:32 10° SSW 12:05:36 77° WNW 12:10:34 10° NNE
STARLINK-1034 4.0 12:02:51 10° WSW 12:06:55 56° NW 12:11:00 10° NE
CZ-4C R/B 4.5 12:05:05 10° SSW 12:07:51 21° W 12:10:39 10° NW
Cosmos 2344 3.7 12:00:39 10° SW 12:08:19 67° WNW 12:15:59 10° NNE
Cosmos 1680 Rocket 3.7 12:05:03 10° SSW 12:10:13 59° WNW 12:15:27 10° N
PSLV R/B 3.9 12:06:44 10° N 12:10:43 45° WNW 12:14:43 10° SSW
SL-24 R/B - RUBIN 2 4.4 12:05:51 10° SSW 12:11:25 88° ESE 12:17:45 10° NNE
STARLINK-1068 4.1 12:07:52 10° WSW 12:11:54 50° NW 12:15:56 10° NE
Cosmos 1933 4.3 12:08:42 10° NNW 12:12:10 28° W 12:15:36 10° SSW
